Location: Newark
(27.9881°N, 86.9253°E)
Time: 08:28:13
(UTC+00:00)

ISS - Visible Passes

Search period start: 01 October 2020 00:00
Search period end: 11 October 2020 00:00
Orbit: 419 x 421 km, 51.6° (Epoch: 01 October)

Date Brightness Start Highest point End Pass type
(mag) Time Alt. Az. Time Alt. Az. Time Alt. Az.
05 Oct -1.3 13:00:49 10° NNE 13:01:27 11° NNE 13:01:27 11° NNE visible
06 Oct -1.2 13:48:24 10° NW 13:49:21 17° NW 13:49:21 17° NW visible
07 Oct -3.0 13:01:18 10° NNW 13:04:23 34° NE 13:04:23 34° NE visible
08 Oct -2.1 12:14:26 10° N 12:16:57 19° NE 12:19:28 10° E visible
08 Oct -1.2 13:50:54 10° WNW 13:52:37 21° W 13:52:37 21° W visible
09 Oct -3.1 13:03:09 10° NW 13:06:26 52° SW 13:08:04 25° SSE visible
10 Oct -3.8 12:15:45 10° NW 12:19:06 72° NE 12:22:26 10° SE visible
